Wetbulb
55.88 56.17 56.34 56.50 56.44 56.44 56.31 56.45 56.26 56.60 56.81 57.01 57.30 57.77 58.05 58.06 58.30 55.70 50.67 55.33 56.45 60.19 58.72 52.04 51.00 50.28 49.92 46.14 47.33 45.60 35.49 31.92 33.84 35.08 36.44 40.98 40.11 42.78 44.34 41.38 41.25 42.62 44.08 47.13 48.80
55.67 55.92 55.93 56.27 56.02 56.09 56.08 55.96 56.04 56.32 56.49 56.98 57.09 57.59 57.72 57.62 54.61 50.75 56.57 59.29 59.51 59.69 51.77 48.60 46.40 48.20 43.71 43.39 44.39 39.93 33.96 35.56 39.38 38.35 37.87 41.76 41.42 41.52 41.58 41.60 42.84 42.27 45.32 47.59 48.18
55.81 55.82 56.15 56.17 55.98 55.96 55.70 55.66 55.91 56.11 56.49 56.34 56.74 57.36 57.28 56.65 50.58 51.01 57.85 58.65 59.19 57.75 53.58 51.48 50.05 47.72 42.09 43.07 41.95 40.33 35.85 40.38 41.48 43.22 43.50 41.53 41.03 42.78 40.35 38.91 41.67 40.97 42.73 45.78 46.74
55.84 56.07 56.48 56.33 56.02 55.73 55.50 55.15 55.04 55.31 55.64 56.02 56.41 57.09 57.28 53.93 40.20 54.03 57.93 58.16 58.22 55.41 52.67 49.52 46.68 41.62 39.72 38.10 42.95 36.78 41.94 42.52 43.38 44.05 42.78 40.51 42.63 40.27 41.00 42.26 45.58 45.91 46.24 45.66 45.45
55.78 55.98 55.90 56.04 55.76 55.51 55.28 54.85 54.83 55.17 55.34 55.66 56.09 56.80 53.28 46.07 47.02 57.53 58.16 56.82 54.67 53.10 49.84 47.08 43.83 41.97 37.92 39.79 41.42 37.85 40.73 43.25 43.71 43.41 42.76 43.41 40.90 40.16 41.38 45.06 46.34 46.53 46.82 45.86 46.09
56.06 55.92 55.85 55.35 55.27 55.11 54.86 54.74 54.97 54.99 54.77 55.44 55.99 56.12 50.35 41.74 55.05 57.58 55.42 53.74 52.72 50.86 48.82 47.60 45.15 45.70 41.50 41.73 39.38 41.42 41.54 41.42 42.40 42.46 43.07 41.57 40.66 40.37 41.68 44.01 44.06 45.14 44.65 45.14 44.62
55.65 55.73 55.26 54.86 54.74 54.83 54.64 54.55 54.55 54.63 54.71 55.47 56.15 53.09 48.45 46.52 53.86 54.16 54.11 51.97 52.19 50.98 47.93 49.29 48.31 44.53 43.46 40.22 43.84 42.38 37.46 39.89 41.32 42.21 41.31 41.74 36.26 37.91 42.75 43.03 42.83 43.32 43.92 44.88 45.48
55.48 55.67 55.35 55.13 54.60 54.36 54.19 54.25 54.45 54.58 54.85 55.67 55.00 50.74 44.86 53.36 52.00 52.83 53.32 51.24 52.21 52.36 51.07 50.67 49.73 46.20 43.68 44.43 42.60 38.04 36.93 31.69 39.58 40.79 41.85 39.19 31.80 39.65 43.00 42.38 41.12 44.21 45.48 45.96 46.66
55.67 55.74 55.31 54.64 54.19 53.96 53.76 54.24 54.86 55.62 55.37 55.23 49.89 47.29 42.71 53.33 49.29 52.19 51.80 49.13 50.13 50.56 50.63 51.94 48.51 43.76 43.06 36.99 31.44 35.79 25.35 30.00 33.85 41.01 39.94 37.97 33.88 39.83 43.02 43.21 42.03 42.69 43.79 44.73 45.87
56.57 55.84 54.93 54.18 53.71 53.58 53.89 54.60 54.62 53.97 54.38 53.85 51.54 42.52 46.17 45.43 49.23 50.70 51.08 50.37 47.53 47.00 46.69 45.59 42.29 37.39 36.81 33.24 22.83 27.07 27.53 31.57 31.54 37.02 38.77 36.57 35.91 39.82 42.31 42.06 41.26 42.10 42.88 43.68 44.60
57.41 56.22 54.53 53.95 53.83 53.85 51.62 48.69 43.99 44.24 46.47 43.58 44.11 45.07 45.69 48.85 50.22 48.11 50.77 48.48 47.40 43.94 37.26 41.86 33.53 28.31 35.39 35.65 36.08 34.45 31.81 30.69 34.79 38.98 36.80 35.77 36.05 38.51 41.14 40.97 39.94 40.07 40.72 40.58 41.61
57.76 55.64 54.24 53.61 53.41 53.56 50.35 45.19 45.03 44.58 38.22 46.09 46.15 45.23 47.59 48.46 42.83 46.54 50.15 42.52 41.29 36.06 39.63 35.46 30.20 39.10 40.35 38.67 36.64 34.60 31.13 30.91 35.32 38.61 36.65 35.59 34.68 38.15 39.64 39.11 39.34 39.69 39.28 40.42 41.63
57.10 55.16 54.16 53.37 53.87 50.25 47.31 46.69 50.07 48.57 38.24 41.80 45.04 44.52 45.03 46.02 42.29 43.99 46.66 43.48 38.90 36.87 36.49 32.29 36.15 41.39 39.01 35.83 34.40 33.51 31.43 32.31 32.55 36.33 36.74 34.03 30.46 33.35 39.38 40.13 41.00 41.90 40.76 42.76 42.22
56.86 54.96 53.63 53.23 49.45 47.42 46.32 50.26 49.75 48.33 27.78 28.22 39.57 44.32 46.00 46.01 41.12 48.23 47.95 43.43 39.86 36.27 37.04 35.24 40.08 38.51 36.44 35.21 36.06 25.79 36.92 36.24 34.37 29.52 22.27 33.64 25.14 30.91 35.18 36.37 39.32 40.20 40.10 40.52 41.36
56.69 55.14 52.78 51.44 44.62 45.71 48.61 50.10 48.26 44.03 13.45 34.49 40.26 49.23 46.91 42.45 43.43 43.45 47.89 43.42 36.52 37.52 36.61 31.96 36.30 36.00 34.54 36.07 38.46 32.77 37.83 35.57 34.70 29.78 24.52 27.82 25.82 27.91 34.14 34.94 36.58 37.59 40.35 40.60 41.37
56.66 55.31 52.78 49.82 46.95 48.69 50.35 48.59 45.17 25.10 14.87 28.52 41.47 40.26 39.88 41.62 42.32 44.17 43.81 44.46 43.53 38.42 38.26 36.75 40.63 38.79 37.72 39.80 39.10 39.62 35.90 33.53 28.70 24.04 19.15 25.68 24.71 27.52 30.16 32.16 35.96 38.95 39.33 39.97 40.70
55.82 55.09 51.18 50.79 44.91 49.87 49.37 43.93 25.75 15.45 33.66 30.96 35.00 39.91 38.97 38.11 39.41 40.63 39.33 36.24 32.72 26.33 26.97 33.68 36.34 39.43 40.84 35.28 37.76 35.97 28.41 16.04 14.48 13.10 17.40 28.40 25.27 26.68 33.87 36.34 37.26 37.45 37.51 39.09 39.78
55.21 54.07 51.72 50.93 50.70 49.66 46.08 35.01 20.85 28.56 32.62 38.85 37.97 38.06 34.71 37.88 37.03 38.32 35.17 32.50 37.03 34.86 27.78 22.51 21.83 36.26 39.40 36.14 32.78 32.26 29.44 18.23 14.81 12.68 20.49 29.34 21.26 27.93 36.39 38.75 39.27 39.57 38.79 39.76 40.57
54.22 49.87 48.68 49.14 50.92 49.38 41.37 26.23 25.67 30.87 36.20 35.53 36.96 31.57 31.28 36.17 34.15 34.62 33.85 33.30 35.87 37.20 27.77 25.38 26.49 38.24 39.02 39.58 37.64 31.35 25.22 32.60 25.89 25.67 21.20 22.31 27.42 35.18 36.48 36.83 36.93 36.79 38.11 38.46 40.77
47.57 46.83 45.75 50.15 50.33 45.95 38.11 31.59 32.91 38.68 38.17 37.05 29.85 33.33 26.88 31.90 30.65 31.89 31.36 35.31 36.34 38.90 37.24 32.57 25.22 34.57 37.70 37.94 37.69 34.23 35.18 23.48 23.26 14.39 15.20 18.93 22.49 23.88 31.48 33.09 35.57 35.02 36.45 39.82 42.12
46.48 42.38 46.22 49.32 48.12 41.12 32.81 33.76 37.94 42.49 41.76 35.49 32.75 31.59 30.27 29.01 31.71 29.95 31.16 34.77 37.42 37.33 37.62 33.81 30.61 29.09 34.45 32.50 30.95 31.58 29.54 30.05 28.09 25.40 14.04 15.31 21.77 32.66 34.03 36.53 34.38 35.14 38.48 40.52 40.22
44.23 37.06 45.38 48.53 38.85 38.96 34.73 36.92 41.03 40.00 42.13 38.97 36.50 34.94 31.48 32.20 29.13 28.22 30.14 33.84 39.14 38.99 33.99 36.18 31.65 24.56 28.90 35.81 36.48 34.57 31.70 29.32 19.56 19.15 24.54 22.51 24.86 37.75 37.00 38.67 37.02 36.90 39.84 40.75 41.49
40.45 40.46 46.41 46.42 32.63 33.46 36.93 37.36 39.11 37.41 37.39 38.06 36.51 37.65 36.30 31.93 29.27 30.73 32.20 38.19 40.15 38.21 34.32 34.94 29.55 20.57 22.77 28.43 32.92 29.70 32.17 32.35 30.25 26.60 25.21 18.95 24.36 35.50 37.58 38.07 36.84 38.24 38.72 39.06 41.20
39.60 33.05 39.11 41.53 39.79 35.58 34.15 34.08 34.43 39.96 38.89 39.59 37.83 38.53 36.02 34.22 35.36 31.73 33.26 38.07 39.16 39.10 43.46 40.41 30.85 25.84 21.17 24.68 29.42 28.68 31.66 33.39 29.85 21.35 24.63 25.61 27.85 33.06 35.13 32.68 34.83 39.14 39.09 40.07 42.19
41.13 36.03 38.73 32.00 34.24 36.00 35.62 33.53 32.43 34.05 39.10 39.69 36.81 37.17 35.37 31.13 32.03 31.76 34.38 35.60 37.12 40.73 38.59 36.02 27.84 29.15 30.44 31.39 31.48 30.71 30.44 31.34 29.05 30.07 24.70 28.42 28.29 32.96 34.58 32.96 35.18 39.64 38.97 38.91 43.06
34.47 36.10 38.07 35.87 36.90 33.64 33.69 31.73 31.36 33.21 34.34 33.23 33.32 35.80 36.12 33.96 34.43 33.28 34.81 33.75 32.40 34.75 34.77 36.38 28.51 29.00 26.93 31.91 30.09 27.41 30.67 31.06 31.00 31.46 30.41 30.59 29.68 34.83 34.21 36.50 35.98 39.21 38.74 39.02 43.30
41.10 41.43 39.00 34.70 34.10 33.82 33.62 33.70 32.71 34.57 35.50 37.38 37.06 35.60 33.60 35.43 37.94 37.53 38.81 38.09 37.83 34.54 33.01 34.25 31.67 25.69 23.70 26.92 27.43 23.37 28.66 29.60 30.99 32.58 31.06 25.98 32.13 31.38 33.32 34.50 37.39 38.55 38.84 39.18 42.35
MSLP
1024.85 1024.64 1024.45 1024.19 1024.06 1023.80 1023.55 1023.28 1023.04 1022.62 1022.21 1021.89 1021.48 1021.10 1020.73 1020.23 1019.38 1018.83 1019.44 1019.79 1019.40 1018.59 1017.76 1017.15 1016.39 1016.27 1016.02 1016.58 1016.76 1016.89 1017.76 1018.05 1017.57 1017.12 1016.71 1016.30 1016.31 1015.82 1015.64 1015.11 1014.74 1014.29 1013.93 1013.32 1012.73
1024.87 1024.75 1024.44 1024.19 1024.02 1023.82 1023.59 1023.36 1023.00 1022.63 1022.24 1021.85 1021.52 1021.10 1020.74 1020.37 1020.09 1019.74 1019.92 1019.60 1019.17 1018.51 1018.05 1017.71 1017.43 1017.07 1017.12 1017.30 1017.49 1017.71 1018.37 1018.04 1017.68 1017.41 1017.36 1017.13 1017.09 1016.96 1016.62 1015.61 1014.24 1014.60 1013.63 1013.33 1013.02
1024.97 1024.66 1024.37 1024.13 1023.99 1023.83 1023.60 1023.35 1023.02 1022.63 1022.20 1021.91 1021.51 1021.10 1020.76 1020.65 1020.37 1020.13 1019.80 1019.52 1019.14 1018.72 1018.53 1018.05 1017.72 1017.61 1017.87 1017.88 1018.32 1018.44 1018.48 1018.15 1017.62 1017.52 1017.69 1017.65 1017.44 1017.26 1017.01 1015.90 1015.05 1014.74 1014.10 1013.87 1013.49
1024.93 1024.64 1024.33 1024.15 1023.87 1023.74 1023.47 1023.16 1023.01 1022.68 1022.30 1021.89 1021.50 1021.06 1020.56 1020.49 1020.68 1020.12 1019.86 1019.61 1019.24 1018.95 1018.81 1018.62 1018.38 1018.59 1018.84 1018.94 1018.83 1019.04 1018.45 1018.46 1017.94 1017.86 1017.99 1017.96 1017.56 1017.29 1016.82 1015.37 1014.79 1014.65 1014.29 1013.76 1013.50
1024.77 1024.53 1024.28 1024.08 1023.97 1023.69 1023.38 1023.06 1022.83 1022.48 1022.23 1021.86 1021.46 1021.08 1020.74 1020.32 1020.30 1020.01 1019.92 1019.69 1019.46 1019.35 1019.36 1019.44 1019.47 1019.59 1019.79 1019.72 1019.45 1019.17 1018.86 1018.54 1017.98 1017.86 1017.61 1017.35 1017.19 1017.09 1015.58 1014.74 1014.45 1013.94 1013.49 1013.24 1012.84
1024.57 1024.37 1024.21 1024.03 1023.84 1023.50 1023.21 1022.93 1022.67 1022.37 1022.14 1021.86 1021.40 1021.15 1021.05 1020.47 1019.82 1019.86 1019.88 1019.87 1019.93 1019.86 1019.90 1019.94 1020.25 1020.19 1020.25 1020.01 1020.00 1019.50 1019.10 1018.46 1017.68 1017.29 1017.05 1016.80 1016.58 1016.62 1014.53 1013.98 1013.81 1013.27 1012.75 1012.30 1012.18
1024.45 1024.25 1024.05 1023.80 1023.58 1023.32 1023.04 1022.72 1022.49 1022.18 1021.96 1021.71 1021.40 1021.36 1020.89 1020.31 1019.80 1019.90 1019.90 1020.04 1020.08 1020.19 1020.27 1020.34 1020.39 1020.46 1020.46 1020.30 1019.90 1019.58 1019.49 1018.50 1017.30 1016.94 1016.50 1016.15 1016.34 1015.57 1014.23 1013.99 1013.47 1012.89 1012.22 1011.92 1011.64
1024.33 1024.21 1023.96 1023.69 1023.38 1023.06 1022.80 1022.51 1022.21 1021.92 1021.73 1021.43 1021.35 1021.38 1020.71 1020.00 1020.04 1020.01 1019.82 1020.06 1020.01 1020.09 1020.31 1020.31 1020.37 1020.57 1020.50 1020.16 1019.94 1019.99 1019.92 1019.25 1017.48 1017.00 1016.39 1016.48 1015.49 1014.89 1014.02 1013.47 1013.00 1012.33 1011.59 1011.08 1010.68
1024.31 1024.07 1023.92 1023.62 1023.21 1022.86 1022.46 1022.04 1021.74 1021.53 1021.49 1021.38 1021.53 1021.22 1020.71 1020.24 1020.30 1020.16 1020.10 1020.25 1020.17 1020.12 1020.19 1020.07 1020.35 1020.50 1020.48 1020.73 1020.74 1020.42 1020.48 1019.86 1018.38 1016.91 1016.80 1016.75 1015.35 1014.60 1013.80 1013.15 1012.27 1011.55 1010.69 1010.27 1009.80
1024.19 1024.05 1023.87 1023.61 1023.23 1022.68 1022.04 1021.39 1021.28 1021.45 1021.42 1021.29 1021.18 1021.26 1020.68 1020.34 1020.18 1020.18 1020.29 1020.35 1020.26 1020.29 1020.44 1020.49 1020.59 1020.76 1020.96 1021.07 1021.69 1021.27 1021.02 1020.16 1019.40 1017.42 1016.80 1016.01 1014.23 1013.98 1012.86 1012.42 1011.75 1011.07 1010.21 1009.52 1009.22
1024.22 1024.01 1023.88 1023.60 1023.12 1022.57 1021.98 1021.55 1021.69 1021.84 1021.42 1021.02 1020.86 1020.48 1020.23 1020.23 1020.13 1020.34 1020.35 1020.34 1020.36 1020.55 1020.65 1020.54 1020.88 1020.87 1020.78 1020.70 1020.89 1021.06 1021.04 1020.32 1019.08 1017.71 1016.97 1015.66 1014.79 1012.63 1012.30 1011.34 1010.77 1010.16 1009.56 1008.93 1008.55
1023.95 1023.93 1023.77 1023.44 1023.05 1022.51 1022.31 1022.43 1023.06 1023.44 1022.24 1020.70 1020.33 1020.19 1020.08 1020.14 1020.35 1020.34 1020.36 1020.60 1020.54 1020.74 1020.56 1020.86 1020.61 1019.96 1019.91 1020.18 1020.59 1020.58 1020.60 1019.86 1018.54 1017.65 1017.58 1015.36 1015.11 1012.59 1011.80 1010.94 1010.20 1009.52 1009.22 1008.61 1008.04
1023.88 1023.81 1023.71 1023.36 1022.85 1022.63 1022.78 1023.08 1022.87 1022.87 1022.90 1020.88 1020.22 1020.03 1020.03 1020.36 1020.17 1020.34 1020.53 1020.38 1020.50 1020.64 1020.50 1020.73 1019.73 1019.37 1019.52 1019.67 1020.10 1020.11 1020.23 1019.64 1019.20 1017.88 1017.52 1016.08 1014.81 1012.83 1011.04 1010.32 1009.43 1008.53 1008.10 1008.00 1008.07
1023.74 1023.74 1023.68 1023.24 1023.15 1022.97 1023.03 1022.94 1022.76 1022.86 1023.07 1021.24 1020.32 1020.10 1020.08 1020.21 1020.33 1020.19 1020.34 1020.67 1020.49 1020.54 1020.40 1020.22 1019.31 1019.29 1019.38 1019.45 1019.47 1019.65 1018.87 1019.15 1019.15 1019.36 1018.88 1017.54 1016.13 1013.48 1011.71 1010.58 1009.44 1008.66 1008.16 1008.52 1008.64
1023.52 1023.64 1023.75 1023.63 1023.84 1023.24 1023.17 1022.74 1022.74 1023.06 1022.90 1020.99 1020.30 1020.03 1019.89 1020.32 1020.35 1020.38 1020.40 1020.65 1020.74 1020.66 1020.89 1019.71 1019.16 1019.09 1019.16 1018.80 1018.88 1018.81 1018.77 1019.15 1019.16 1019.82 1019.99 1017.93 1017.39 1013.38 1012.11 1010.68 1009.76 1009.48 1009.13 1008.93 1008.76
1023.16 1023.51 1023.73 1023.69 1023.89 1023.22 1022.70 1022.71 1022.93 1023.35 1022.00 1020.63 1020.27 1020.17 1020.15 1020.11 1019.99 1020.35 1020.58 1020.78 1020.73 1020.76 1020.49 1019.88 1019.08 1018.90 1018.52 1018.28 1018.44 1018.56 1018.96 1018.75 1019.45 1020.30 1020.54 1018.12 1017.28 1013.54 1011.66 1010.58 1010.00 1009.57 1009.33 1009.13 1008.78
1022.68 1023.16 1023.63 1023.41 1023.48 1023.09 1022.80 1022.94 1023.70 1022.72 1020.99 1020.59 1020.02 1019.98 1020.01 1019.92 1019.87 1020.08 1020.50 1020.70 1020.71 1020.70 1020.60 1019.74 1018.77 1018.11 1018.12 1018.40 1018.03 1018.52 1019.60 1020.59 1021.15 1021.24 1020.07 1017.78 1016.81 1013.15 1010.73 1010.18 1009.80 1009.59 1009.44 1009.19 1008.85
1022.32 1022.83 1023.19 1023.04 1023.13 1023.08 1023.23 1023.42 1023.29 1021.76 1020.45 1019.62 1019.38 1019.56 1019.69 1019.15 1019.38 1019.67 1020.03 1020.04 1019.54 1019.97 1020.24 1019.99 1018.56 1017.92 1017.80 1017.97 1018.13 1018.68 1019.76 1021.64 1022.37 1021.92 1019.80 1017.58 1015.61 1012.08 1010.00 1009.51 1009.71 1009.69 1009.46 1008.48 1007.78
1022.35 1023.07 1023.28 1022.87 1022.88 1023.20 1023.51 1023.60 1022.14 1020.98 1020.16 1019.77 1019.31 1019.30 1019.36 1018.98 1019.10 1019.28 1019.42 1019.18 1018.56 1019.00 1019.57 1019.30 1018.41 1017.28 1017.17 1017.05 1017.79 1018.37 1019.29 1020.01 1021.22 1020.91 1020.31 1016.97 1013.97 1011.39 1009.20 1009.31 1009.82 1009.72 1009.36 1008.93 1007.79
1022.77 1023.14 1023.16 1022.71 1022.65 1023.20 1023.43 1022.49 1021.28 1019.86 1019.67 1019.59 1019.52 1019.08 1019.20 1019.16 1019.18 1019.11 1018.44 1017.76 1017.86 1018.06 1018.39 1018.94 1018.72 1017.46 1016.96 1016.85 1016.99 1017.66 1018.54 1019.88 1021.13 1021.52 1020.22 1016.48 1014.08 1011.30 1009.56 1009.66 1009.70 1009.87 1009.26 1008.24 1006.99
1023.01 1023.26 1022.98 1022.84 1022.91 1023.31 1023.08 1022.04 1020.71 1019.70 1019.37 1019.53 1019.36 1019.38 1019.35 1019.44 1019.18 1018.73 1018.00 1017.40 1017.32 1017.73 1018.08 1018.72 1019.10 1018.29 1017.68 1017.11 1016.95 1017.91 1018.48 1019.55 1020.59 1021.01 1020.34 1017.71 1012.75 1009.81 1009.44 1009.25 1009.80 1009.37 1008.71 1008.08 1007.42
1022.93 1023.48 1023.38 1023.18 1023.44 1022.75 1022.44 1021.80 1020.90 1020.01 1019.53 1019.37 1019.37 1019.51 1019.65 1019.59 1019.24 1018.80 1018.08 1017.45 1017.06 1017.42 1018.20 1018.45 1018.86 1018.72 1017.63 1016.29 1016.40 1016.90 1017.39 1018.33 1019.60 1019.89 1019.21 1017.67 1011.42 1009.39 1008.66 1009.24 1009.66 1009.60 1008.77 1007.99 1007.14
1023.08 1023.40 1023.58 1023.60 1023.24 1022.74 1022.22 1021.60 1021.07 1020.67 1020.09 1020.00 1019.65 1019.55 1019.60 1019.82 1019.67 1018.62 1017.73 1017.07 1017.02 1017.49 1017.91 1018.48 1018.95 1019.01 1017.69 1017.10 1016.40 1016.67 1017.01 1017.46 1018.15 1018.38 1017.22 1016.90 1011.25 1008.22 1008.25 1009.02 1009.51 1009.65 1008.90 1008.27 1007.05
1023.41 1023.68 1023.82 1023.50 1023.20 1023.13 1022.73 1022.02 1021.43 1020.60 1020.34 1020.12 1020.05 1020.06 1020.18 1020.01 1019.77 1019.11 1018.42 1017.91 1017.68 1017.62 1017.79 1018.15 1018.98 1019.51 1019.00 1018.16 1017.76 1017.03 1016.62 1016.85 1017.49 1017.23 1015.49 1014.14 1010.87 1008.35 1008.93 1009.05 1009.27 1009.10 1009.10 1008.63 1007.31
1023.19 1023.53 1023.21 1023.26 1023.37 1023.24 1023.03 1022.65 1021.81 1021.38 1020.97 1020.86 1020.72 1020.75 1020.77 1020.45 1019.99 1019.54 1019.04 1018.60 1018.24 1017.93 1017.99 1018.36 1018.92 1019.23 1018.89 1018.43 1017.88 1016.65 1015.57 1014.92 1015.70 1014.70 1014.90 1011.41 1011.43 1008.66 1009.07 1009.36 1009.03 1009.38 1009.42 1008.79 1007.57
1023.69 1023.70 1023.65 1023.44 1023.24 1023.21 1023.12 1022.64 1022.31 1021.77 1021.87 1021.50 1021.56 1021.19 1021.08 1021.05 1020.71 1020.52 1020.25 1019.74 1019.43 1018.82 1018.99 1018.94 1018.94 1019.07 1018.76 1018.21 1017.39 1015.97 1014.08 1013.35 1013.06 1012.71 1012.49 1011.45 1010.12 1009.33 1009.02 1009.03 1009.25 1009.59 1009.32 1008.84 1007.86
1024.10 1023.92 1023.76 1023.69 1023.54 1023.41 1022.90 1022.71 1022.50 1022.19 1021.88 1021.70 1021.43 1021.35 1021.38 1020.71 1020.43 1020.44 1020.28 1020.17 1019.60 1019.57 1019.52 1019.38 1019.45 1019.54 1018.43 1018.05 1017.06 1014.68 1012.03 1011.76 1011.35 1010.89 1010.68 1010.61 1009.24 1009.40 1009.00 1009.45 1009.81 1009.73 1009.46 1009.00 1008.16
Wind_Speed
10 11 11 11 12 13 14 14 14 15 15 16 16 17 18 20 18 4 7 6 9 17 17 10 9 9 3 4 5 4 5 2 5 5 8 7 8 7 8 6 3 4 6 10 7
10 10 11 11 13 13 14 14 15 15 15 16 17 17 18 18 3 8 2 8 13 16 9 10 10 10 4 4 4 5 3 1 2 3 4 6 7 8 7 13 17 7 8 8 8
10 11 11 12 13 14 14 15 15 16 15 16 17 18 18 14 1 2 4 9 12 13 7 5 6 1 5 4 4 4 3 5 3 4 7 7 9 4 7 12 10 9 9 11 10
10 11 12 13 13 14 14 14 15 15 15 16 17 18 21 2 2 2 4 8 10 11 7 8 7 5 4 3 2 3 5 4 5 6 6 6 5 6 10 21 17 18 16 12 12
9 11 11 11 13 14 15 15 14 14 15 15 16 16 8 1 2 3 2 7 6 8 7 7 8 4 3 4 6 2 3 7 9 12 10 9 11 8 17 18 16 16 16 15 15
9 9 10 11 14 14 14 15 15 14 14 15 13 13 2 1 2 5 3 4 6 6 6 7 4 4 2 3 2 5 6 12 9 8 8 8 8 2 11 8 12 11 13 13 10
9 9 8 11 13 14 16 16 15 14 13 13 10 4 3 1 3 2 3 2 1 3 3 3 3 4 4 4 4 5 6 9 5 2 6 3 3 10 16 10 10 11 9 9 9
9 10 10 12 14 15 16 17 16 15 12 9 6 3 2 1 2 2 2 1 3 1 1 2 2 2 2 4 5 2 1 6 6 10 6 1 9 6 13 14 12 19 20 16 17
9 9 10 12 14 17 18 17 15 12 6 6 2 2 2 1 1 2 3 2 3 2 3 3 1 2 3 2 5 3 3 7 10 8 5 4 17 13 13 18 21 16 16 15 16
8 9 10 13 15 17 20 19 7 4 4 5 5 2 2 2 3 2 1 2 2 4 1 2 0 2 3 4 2 7 5 6 11 7 18 19 24 16 18 15 17 19 19 17 15
10 7 10 13 15 18 10 4 5 2 2 4 1 2 3 3 3 2 1 2 2 2 1 2 5 1 4 1 2 5 5 12 15 19 15 14 19 25 22 20 15 13 13 11 9
9 5 9 12 16 18 4 5 3 4 8 6 3 1 1 3 1 3 0 1 1 2 6 5 4 5 5 3 4 7 8 12 12 8 10 19 21 24 18 12 9 13 9 8 3
8 5 8 13 15 5 3 3 3 4 3 5 1 1 2 4 3 4 5 1 3 2 2 5 6 4 1 3 4 7 6 7 11 14 10 13 8 6 19 10 8 12 8 7 5
7 5 6 15 3 5 3 3 3 2 5 8 0 1 3 1 1 2 3 1 2 3 3 6 5 2 3 5 4 4 6 7 12 8 6 8 9 8 8 10 11 7 2 5 2
7 5 2 4 3 3 2 4 4 3 6 5 3 1 3 2 3 1 2 2 3 1 4 8 3 4 3 6 1 11 3 8 14 9 4 4 3 9 7 16 11 6 5 5 6
8 7 3 1 1 3 3 4 3 9 7 3 3 1 1 3 3 3 1 1 3 3 4 8 3 4 6 3 6 7 7 10 3 4 1 6 4 16 8 3 2 4 7 7 7
7 11 5 2 2 4 4 3 7 6 4 3 2 4 4 4 4 5 3 2 3 3 2 5 4 3 3 3 4 5 6 6 9 5 7 4 9 12 14 1 3 5 5 7 8
8 12 4 4 3 3 2 5 4 5 4 1 2 3 4 6 3 5 2 4 7 2 2 2 10 8 5 6 4 3 5 5 5 4 12 14 8 9 5 7 5 5 7 15 20
11 2 1 3 4 1 2 2 8 6 3 5 1 2 3 2 1 3 6 5 4 9 6 2 6 2 5 6 6 1 1 6 3 5 3 5 9 16 7 9 9 10 14 19 23
3 2 2 3 5 1 2 5 6 5 3 5 3 6 2 3 3 5 4 4 4 6 4 3 7 5 4 2 5 5 3 4 3 5 7 8 9 10 12 7 9 11 16 22 20
3 2 0 3 3 2 5 7 5 9 4 4 3 4 3 2 4 2 5 3 2 3 5 1 4 7 4 5 7 2 2 2 2 3 4 7 9 5 14 16 10 14 21 20 19
2 3 1 1 4 3 4 5 3 4 3 4 1 3 3 7 5 4 6 6 5 7 5 6 4 5 12 12 6 6 8 8 6 6 6 4 25 18 16 8 3 14 19 18 15
2 1 1 0 5 5 3 5 7 6 8 4 3 5 5 3 4 4 5 3 7 7 5 2 4 5 11 6 4 1 3 3 3 2 18 7 16 4 12 16 7 12 18 16 16
1 2 1 2 1 2 0 3 5 5 4 4 3 3 4 5 6 6 6 5 2 6 9 5 4 7 11 9 5 15 16 14 7 5 11 16 30 31 20 9 10 11 15 18 13
2 2 0 3 4 6 3 3 3 3 3 7 3 10 13 6 7 10 7 7 6 9 5 7 5 6 10 12 11 18 23 22 16 20 9 25 19 28 16 7 6 9 14 14 11
1 2 2 2 4 9 9 7 11 12 4 6 9 7 5 3 5 6 8 2 5 6 4 3 5 3 7 12 11 15 25 21 18 17 15 21 26 10 6 5 10 6 11 11 9
3 3 1 3 3 2 2 4 5 4 6 11 7 6 9 13 8 3 7 11 12 12 8 6 2 1 7 4 12 12 9 4 5 6 6 7 14 5 10 8 4 6 10 10 10
Wind_Direction
3 0 357 357 354 353 352 351 347 347 348 346 343 342 339 335 327 41 42 349 342 341 336 324 352 351 19 43 28 19 59 321 357 22 296 357 8 340 319 311 291 246 243 258 274
354 349 349 349 349 346 347 344 342 342 342 340 339 338 337 339 314 70 338 351 351 348 344 350 340 342 21 15 21 66 97 334 314 326 337 346 355 330 348 306 293 283 270 291 304
347 343 344 346 344 340 342 338 338 338 339 339 334 334 331 329 271 73 350 358 353 346 318 305 321 315 17 36 17 344 194 352 329 348 8 331 316 295 305 282 253 269 302 303 300
339 339 343 342 339 340 335 335 332 332 333 332 330 329 326 270 116 98 5 349 350 340 0 353 356 36 43 28 19 358 267 310 277 350 328 288 275 275 235 255 270 274 269 276 280
329 337 339 348 340 335 334 328 326 326 329 328 326 324 340 322 96 162 315 336 354 349 31 10 32 18 33 331 345 198 307 314 288 287 267 256 251 242 264 265 271 272 270 261 264
331 334 342 346 335 331 331 327 322 321 323 322 323 324 248 74 124 95 17 19 15 12 13 41 15 319 285 284 303 299 292 284 277 263 243 238 250 206 266 276 297 287 270 267 246
329 333 335 332 335 330 328 323 317 315 313 316 318 306 321 163 110 72 265 143 63 39 13 46 352 23 348 312 340 276 311 305 274 274 252 210 270 240 259 285 280 283 288 283 265
329 327 330 332 332 327 323 317 312 308 301 304 307 303 263 41 21 242 252 164 166 104 38 301 295 273 225 298 315 244 220 350 299 313 294 331 280 244 287 282 274 285 281 281 272
311 313 319 326 330 327 318 311 307 299 271 287 313 163 313 113 208 113 60 338 305 220 240 282 332 254 338 339 1 342 279 292 319 327 291 23 287 270 278 279 285 284 284 280 278
295 306 317 326 328 325 320 309 263 303 250 245 261 31 196 120 122 102 115 281 298 323 259 328 208 31 9 67 280 298 329 293 285 279 307 295 282 286 289 286 283 284 280 277 274
304 295 313 324 328 326 340 0 16 16 354 228 208 267 125 104 114 227 159 309 260 270 347 244 50 259 267 149 236 282 260 273 277 287 299 285 303 295 300 297 287 274 274 266 234
294 288 311 323 329 327 323 58 96 203 316 297 209 339 145 100 287 186 152 53 203 304 318 15 226 220 226 241 248 270 286 283 287 275 304 300 302 289 291 276 267 267 262 231 226
284 282 310 317 321 339 42 62 333 4 262 297 176 252 136 132 236 185 160 161 224 253 254 190 244 326 226 286 287 266 241 277 269 312 279 305 277 296 302 300 303 284 228 211 180
268 266 322 318 11 323 57 340 332 39 52 283 243 119 115 227 254 114 199 52 275 242 297 236 241 198 278 270 211 291 229 260 292 349 321 69 296 288 298 299 302 290 202 52 353
251 238 291 28 277 15 292 334 314 64 24 260 121 292 106 218 155 106 55 101 238 273 61 259 220 213 263 231 119 241 309 287 286 285 25 326 257 262 298 289 299 354 10 314 301
237 210 214 302 254 277 329 337 57 45 263 333 115 192 183 209 217 136 170 142 249 306 217 245 312 241 218 256 238 292 299 299 39 98 20 242 136 298 293 285 297 303 314 333 330
272 188 174 310 261 318 345 52 43 131 298 273 230 161 254 195 216 169 169 212 211 31 320 316 227 228 149 301 315 47 30 344 356 9 237 285 333 246 276 321 253 296 287 288 287
285 162 225 227 354 8 34 56 121 251 254 102 106 179 230 163 241 181 283 284 229 173 331 110 332 171 177 206 218 276 142 149 278 280 289 288 235 254 237 208 258 282 282 326 315
130 99 204 243 187 97 100 99 204 207 325 358 293 180 270 215 177 159 213 231 201 170 175 313 271 208 187 191 155 177 208 195 230 265 291 251 282 309 301 345 3 327 332 314 316
114 130 217 166 129 108 133 228 227 180 61 24 308 184 278 227 184 172 232 208 182 175 130 291 302 264 260 101 256 166 179 18 4 309 296 276 288 246 307 312 321 317 318 322 321
108 180 332 145 87 93 212 216 267 280 345 221 240 312 343 25 252 248 256 301 146 165 136 220 168 287 18 212 190 80 278 159 180 173 223 299 277 216 303 321 313 328 335 325 315
146 219 331 104 221 161 214 199 310 306 342 267 296 211 235 300 279 261 236 234 159 146 182 215 217 259 231 262 217 213 229 171 133 257 233 242 275 282 267 348 314 329 333 327 314
184 181 46 120 242 216 257 246 226 236 270 255 238 221 207 231 296 253 269 247 158 155 178 162 263 321 328 359 0 31 252 214 254 161 257 257 271 261 303 329 337 336 341 323 323
35 215 177 219 348 331 225 244 242 231 251 273 225 20 340 307 279 275 313 309 231 194 180 151 211 192 242 252 312 290 272 270 218 242 279 241 275 286 307 323 329 0 337 322 324
156 263 24 196 227 224 188 334 324 320 304 13 308 221 230 242 258 263 262 325 322 275 178 170 228 237 262 276 280 276 280 280 258 249 240 278 271 279 311 316 328 18 324 320 326
194 178 166 323 300 199 224 218 237 263 230 261 246 294 12 352 288 295 332 342 270 350 334 298 271 289 282 278 285 290 277 267 257 260 248 260 273 293 289 345 359 349 324 319 323
351 0 358 233 204 213 204 186 215 201 251 232 238 274 268 262 264 274 281 277 256 271 268 241 214 278 265 316 315 289 259 207 239 213 218 260 277 347 339 348 20 334 327 323 319